QPF
0.02 0.01 0.01 0.01 0.01 0.00 0.00 0.01 0.02 0.02 0.01 0.00 0.00 0.00 0.00 0.00 0.00 0.00 0.00 0.00 0.00 0.00 0.00 0.00 0.00 0.00 0.00 0.00 0.00 0.00 0.00 0.00 0.00 0.00 0.00 0.00 0.00 0.00 0.00 0.00 0.00 0.00 0.00 0.00
0.01 0.00 0.01 0.01 0.01 0.00 0.00 0.00 0.00 0.01 0.00 0.00 0.00 0.00 0.00 0.00 0.00 0.00 0.00 0.00 0.00 0.00 0.00 0.00 0.00 0.00 0.00 0.00 0.00 0.00 0.00 0.00 0.00 0.00 0.00 0.00 0.00 0.00 0.00 0.00 0.00 0.00 0.00 0.00
0.01 0.00 0.01 0.01 0.00 0.00 0.00 0.00 0.00 0.00 0.00 0.00 0.00 0.00 0.00 0.00 0.00 0.00 0.00 0.00 0.00 0.00 0.00 0.00 0.00 0.00 0.00 0.00 0.00 0.00 0.00 0.00 0.00 0.00 0.00 0.00 0.00 0.00 0.00 0.00 0.00 0.00 0.00 0.00
0.01 0.01 0.01 0.01 0.00 0.00 0.00 0.00 0.00 0.00 0.00 0.00 0.00 0.00 0.00 0.00 0.00 0.00 0.00 0.00 0.00 0.00 0.00 0.00 0.00 0.00 0.00 0.00 0.00 0.00 0.00 0.00 0.00 0.00 0.00 0.00 0.00 0.00 0.00 0.00 0.00 0.00 0.00 0.00
0.01 0.01 0.01 0.01 0.01 0.01 0.00 0.00 0.00 0.00 0.00 0.00 0.00 0.00 0.00 0.00 0.00 0.00 0.00 0.00 0.00 0.00 0.00 0.00 0.00 0.00 0.00 0.00 0.00 0.00 0.00 0.00 0.00 0.00 0.00 0.00 0.00 0.00 0.00 0.00 0.00 0.00 0.00 0.00
0.01 0.01 0.01 0.00 0.00 0.00 0.00 0.00 0.00 0.00 0.00 0.00 0.00 0.00 0.00 0.00 0.00 0.00 0.00 0.00 0.00 0.00 0.00 0.00 0.00 0.00 0.00 0.00 0.00 0.00 0.00 0.00 0.00 0.00 0.00 0.00 0.00 0.00 0.00 0.00 0.00 0.00 0.00 0.00
0.02 0.01 0.01 0.00 0.00 0.00 0.00 0.00 0.00 0.00 0.00 0.00 0.00 0.00 0.00 0.00 0.00 0.00 0.00 0.00 0.00 0.00 0.00 0.00 0.00 0.00 0.00 0.00 0.00 0.00 0.00 0.00 0.00 0.00 0.00 0.00 0.00 0.00 0.00 0.00 0.00 0.00 0.00 0.00
0.01 0.02 0.01 0.00 0.00 0.00 0.00 0.00 0.00 0.00 0.00 0.00 0.00 0.00 0.00 0.00 0.00 0.00 0.00 0.00 0.00 0.00 0.00 0.00 0.00 0.00 0.00 0.00 0.00 0.00 0.00 0.00 0.00 0.00 0.00 0.00 0.00 0.00 0.00 0.00 0.00 0.00 0.00 0.00
0.00 0.01 0.00 0.00 0.00 0.00 0.00 0.00 0.00 0.00 0.00 0.00 0.00 0.00 0.00 0.00 0.00 0.00 0.00 0.00 0.00 0.00 0.00 0.00 0.00 0.00 0.00 0.00 0.00 0.00 0.00 0.00 0.00 0.00 0.00 0.00 0.00 0.00 0.00 0.00 0.00 0.00 0.00 0.00
0.00 0.00 0.00 0.00 0.00 0.00 0.00 0.00 0.00 0.00 0.00 0.00 0.00 0.00 0.00 0.00 0.00 0.00 0.00 0.00 0.00 0.00 0.00 0.00 0.00 0.00 0.00 0.00 0.00 0.00 0.00 0.00 0.00 0.00 0.00 0.00 0.00 0.00 0.00 0.00 0.00 0.00 0.00 0.00
0.00 0.00 0.00 0.00 0.00 0.00 0.00 0.00 0.00 0.00 0.00 0.00 0.00 0.00 0.00 0.00 0.00 0.00 0.00 0.00 0.00 0.00 0.00 0.00 0.00 0.00 0.00 0.00 0.00 0.00 0.00 0.00 0.00 0.00 0.00 0.00 0.00 0.00 0.00 0.00 0.00 0.00 0.00 0.00
0.00 0.00 0.00 0.00 0.00 0.00 0.00 0.00 0.00 0.00 0.00 0.00 0.00 0.00 0.00 0.00 0.00 0.00 0.00 0.00 0.00 0.00 0.00 0.00 0.00 0.00 0.00 0.00 0.00 0.00 0.00 0.00 0.00 0.00 0.00 0.00 0.00 0.00 0.00 0.00 0.00 0.00 0.00 0.00
0.00 0.00 0.00 0.00 0.00 0.00 0.00 0.00 0.00 0.00 0.00 0.00 0.00 0.00 0.00 0.00 0.00 0.00 0.00 0.00 0.00 0.00 0.00 0.00 0.00 0.00 0.00 0.00 0.00 0.00 0.00 0.00 0.00 0.00 0.00 0.00 0.00 0.00 0.00 0.00 0.00 0.00 0.00 0.00
0.00 0.00 0.00 0.00 0.00 0.00 0.00 0.00 0.00 0.00 0.00 0.00 0.00 0.00 0.00 0.00 0.00 0.00 0.00 0.00 0.00 0.00 0.00 0.00 0.00 0.00 0.00 0.00 0.00 0.00 0.00 0.00 0.00 0.00 0.00 0.00 0.00 0.00 0.00 0.00 0.00 0.00 0.00 0.00
0.00 0.00 0.00 0.00 0.00 0.00 0.00 0.00 0.00 0.00 0.00 0.00 0.00 0.00 0.00 0.00 0.00 0.00 0.00 0.00 0.00 0.00 0.00 0.00 0.00 0.00 0.00 0.00 0.00 0.00 0.00 0.00 0.00 0.00 0.00 0.00 0.00 0.00 0.00 0.00 0.00 0.00 0.00 0.00
0.00 0.00 0.00 0.00 0.00 0.00 0.00 0.00 0.00 0.00 0.00 0.00 0.00 0.00 0.00 0.00 0.00 0.00 0.00 0.00 0.00 0.00 0.00 0.00 0.00 0.00 0.00 0.00 0.00 0.00 0.00 0.00 0.00 0.00 0.00 0.00 0.00 0.00 0.00 0.00 0.00 0.00 0.00 0.00
0.00 0.00 0.00 0.00 0.00 0.00 0.00 0.00 0.00 0.00 0.00 0.00 0.00 0.00 0.00 0.00 0.00 0.00 0.00 0.00 0.00 0.00 0.00 0.00 0.00 0.00 0.00 0.00 0.00 0.00 0.00 0.00 0.00 0.00 0.00 0.00 0.00 0.00 0.00 0.00 0.00 0.00 0.00 0.00
0.00 0.00 0.00 0.00 0.00 0.00 0.00 0.00 0.00 0.00 0.00 0.00 0.00 0.00 0.00 0.00 0.00 0.00 0.00 0.00 0.00 0.00 0.00 0.00 0.00 0.00 0.00 0.00 0.00 0.00 0.00 0.00 0.00 0.00 0.00 0.00 0.00 0.00 0.00 0.00 0.00 0.00 0.00 0.00
0.00 0.00 0.00 0.00 0.00 0.00 0.00 0.00 0.00 0.00 0.00 0.00 0.00 0.00 0.00 0.00 0.00 0.00 0.00 0.00 0.00 0.00 0.00 0.00 0.00 0.00 0.00 0.00 0.00 0.00 0.00 0.00 0.00 0.00 0.00 0.00 0.00 0.00 0.00 0.00 0.00 0.00 0.00 0.00
0.00 0.00 0.00 0.00 0.00 0.00 0.00 0.00 0.00 0.00 0.00 0.00 0.00 0.00 0.00 0.00 0.00 0.00 0.00 0.00 0.00 0.00 0.00 0.00 0.00 0.00 0.00 0.00 0.00 0.00 0.00 0.00 0.00 0.00 0.00 0.00 0.00 0.00 0.00 0.00 0.00 0.00 0.00 0.00
0.00 0.00 0.00 0.00 0.00 0.00 0.00 0.00 0.00 0.00 0.00 0.00 0.00 0.00 0.00 0.00 0.00 0.00 0.00 0.00 0.00 0.00 0.00 0.00 0.00 0.00 0.00 0.00 0.00 0.00 0.00 0.00 0.00 0.00 0.00 0.00 0.00 0.00 0.00 0.00 0.00 0.00 0.00 0.00
0.00 0.00 0.00 0.00 0.00 0.00 0.00 0.00 0.00 0.00 0.00 0.00 0.00 0.00 0.00 0.00 0.00 0.00 0.00 0.00 0.00 0.00 0.00 0.00 0.00 0.00 0.00 0.00 0.00 0.00 0.00 0.00 0.00 0.00 0.00 0.00 0.00 0.00 0.00 0.00 0.00 0.00 0.00 0.00
0.00 0.00 0.00 0.00 0.00 0.00 0.00 0.00 0.00 0.00 0.00 0.00 0.00 0.00 0.00 0.00 0.00 0.00 0.00 0.00 0.00 0.00 0.00 0.00 0.00 0.00 0.00 0.00 0.00 0.00 0.00 0.00 0.00 0.00 0.00 0.00 0.00 0.00 0.00 0.00 0.00 0.00 0.00 0.00
0.00 0.00 0.00 0.00 0.00 0.00 0.00 0.00 0.00 0.00 0.00 0.00 0.00 0.00 0.00 0.00 0.00 0.00 0.00 0.00 0.00 0.00 0.00 0.00 0.00 0.00 0.00 0.00 0.00 0.00 0.00 0.00 0.00 0.00 0.00 0.00 0.00 0.00 0.00 0.00 0.00 0.00 0.00 0.01
0.00 0.00 0.00 0.00 0.00 0.00 0.00 0.00 0.00 0.00 0.00 0.00 0.00 0.00 0.00 0.00 0.00 0.00 0.00 0.00 0.00 0.00 0.00 0.00 0.00 0.00 0.00 0.00 0.00 0.00 0.00 0.00 0.00 0.00 0.00 0.00 0.00 0.00 0.00 0.00 0.00 0.01 0.01 0.01
0.00 0.00 0.00 0.00 0.00 0.00 0.00 0.00 0.00 0.00 0.00 0.00 0.00 0.00 0.00 0.00 0.00 0.00 0.00 0.00 0.00 0.00 0.00 0.00 0.00 0.00 0.00 0.00 0.00 0.00 0.00 0.00 0.00 0.00 0.00 0.00 0.00 0.00 0.00 0.00 0.00 0.01 0.01 0.01
0.00 0.00 0.00 0.00 0.00 0.00 0.00 0.00 0.00 0.00 0.00 0.00 0.00 0.00 0.00 0.00 0.00 0.01 0.01 0.01 0.01 0.01 0.01 0.00 0.00 0.00 0.00 0.00 0.00 0.00 0.00 0.00 0.00 0.00 0.00 0.00 0.00 0.00 0.00 0.01 0.01 0.01 0.01 0.02
MSLP
1012.30 1012.72 1013.05 1013.25 1013.28 1013.11 1012.74 1012.17 1011.45 1010.62 1009.77 1008.98 1008.33 1007.89 1007.72 1007.81 1008.16 1008.70 1009.38 1010.12 1010.85 1011.51 1012.07 1012.52 1012.89 1013.19 1013.47 1013.74 1014.04 1014.36 1014.70 1015.05 1015.37 1015.65 1015.90 1016.11 1016.31 1016.50 1016.73 1016.99 1017.31 1017.66 1018.03 1018.40
1011.68 1011.97 1012.12 1012.12 1011.97 1011.64 1011.17 1010.58 1009.91 1009.21 1008.55 1007.98 1007.56 1007.33 1007.31 1007.49 1007.85 1008.35 1008.92 1009.54 1010.14 1010.69 1011.20 1011.66 1012.08 1012.48 1012.89 1013.32 1013.76 1014.21 1014.64 1015.04 1015.39 1015.69 1015.92 1016.12 1016.31 1016.51 1016.75 1017.04 1017.38 1017.77 1018.18 1018.57
1011.13 1011.29 1011.29 1011.14 1010.84 1010.40 1009.86 1009.27 1008.65 1008.07 1007.55 1007.16 1006.91 1006.83 1006.90 1007.11 1007.44 1007.86 1008.32 1008.81 1009.29 1009.76 1010.23 1010.70 1011.19 1011.70 1012.25 1012.82 1013.40 1013.97 1014.49 1014.96 1015.34 1015.65 1015.90 1016.10 1016.30 1016.51 1016.77 1017.09 1017.47 1017.88 1018.31 1018.71
1010.71 1010.76 1010.66 1010.40 1010.00 1009.49 1008.92 1008.34 1007.77 1007.27 1006.87 1006.59 1006.45 1006.44 1006.54 1006.74 1007.01 1007.33 1007.68 1008.04 1008.43 1008.83 1009.28 1009.77 1010.32 1010.93 1011.60 1012.29 1012.99 1013.66 1014.27 1014.79 1015.22 1015.55 1015.82 1016.04 1016.26 1016.51 1016.80 1017.15 1017.55 1017.98 1018.42 1018.82
1010.41 1010.38 1010.20 1009.88 1009.44 1008.91 1008.34 1007.78 1007.27 1006.83 1006.51 1006.29 1006.20 1006.20 1006.29 1006.44 1006.64 1006.86 1007.10 1007.37 1007.68 1008.03 1008.46 1008.98 1009.58 1010.27 1011.02 1011.81 1012.59 1013.33 1014.00 1014.57 1015.04 1015.41 1015.71 1015.97 1016.23 1016.51 1016.83 1017.21 1017.63 1018.07 1018.50 1018.89
1010.14 1010.06 1009.85 1009.51 1009.06 1008.55 1008.02 1007.51 1007.05 1006.67 1006.39 1006.21 1006.13 1006.13 1006.18 1006.28 1006.39 1006.53 1006.69 1006.89 1007.13 1007.46 1007.88 1008.41 1009.04 1009.77 1010.58 1011.41 1012.25 1013.03 1013.74 1014.35 1014.86 1015.27 1015.61 1015.92 1016.22 1016.54 1016.89 1017.29 1017.72 1018.16 1018.57 1018.94
1009.80 1009.69 1009.48 1009.15 1008.75 1008.29 1007.82 1007.38 1006.98 1006.66 1006.42 1006.27 1006.19 1006.17 1006.19 1006.24 1006.30 1006.38 1006.48 1006.63 1006.85 1007.15 1007.57 1008.10 1008.74 1009.49 1010.30 1011.16 1012.00 1012.81 1013.54 1014.17 1014.71 1015.17 1015.56 1015.91 1016.26 1016.62 1017.00 1017.41 1017.84 1018.26 1018.65 1018.99
1009.31 1009.19 1008.99 1008.72 1008.38 1008.01 1007.62 1007.26 1006.94 1006.69 1006.49 1006.37 1006.30 1006.27 1006.28 1006.30 1006.34 1006.39 1006.47 1006.61 1006.81 1007.11 1007.51 1008.04 1008.67 1009.40 1010.20 1011.04 1011.87 1012.67 1013.41 1014.06 1014.63 1015.13 1015.57 1015.98 1016.37 1016.76 1017.16 1017.58 1017.99 1018.39 1018.75 1019.06
1008.65 1008.54 1008.37 1008.15 1007.90 1007.62 1007.34 1007.07 1006.84 1006.66 1006.52 1006.43 1006.39 1006.37 1006.39 1006.41 1006.45 1006.52 1006.61 1006.75 1006.96 1007.26 1007.66 1008.16 1008.77 1009.47 1010.23 1011.03 1011.84 1012.61 1013.35 1014.02 1014.62 1015.15 1015.64 1016.09 1016.52 1016.94 1017.36 1017.76 1018.16 1018.52 1018.85 1019.13
1007.88 1007.77 1007.64 1007.49 1007.32 1007.14 1006.96 1006.79 1006.65 1006.54 1006.46 1006.42 1006.41 1006.43 1006.47 1006.52 1006.59 1006.68 1006.81 1006.97 1007.20 1007.51 1007.90 1008.38 1008.95 1009.61 1010.32 1011.08 1011.84 1012.60 1013.32 1014.00 1014.62 1015.20 1015.73 1016.22 1016.68 1017.11 1017.53 1017.92 1018.29 1018.62 1018.92 1019.17
1007.09 1006.99 1006.90 1006.81 1006.72 1006.63 1006.55 1006.46 1006.40 1006.35 1006.33 1006.33 1006.36 1006.42 1006.49 1006.59 1006.70 1006.83 1006.99 1007.19 1007.44 1007.76 1008.14 1008.60 1009.13 1009.74 1010.40 1011.10 1011.83 1012.56 1013.27 1013.95 1014.60 1015.20 1015.76 1016.27 1016.75 1017.19 1017.60 1017.97 1018.31 1018.62 1018.89 1019.13
1006.43 1006.35 1006.29 1006.25 1006.22 1006.20 1006.18 1006.16 1006.15 1006.15 1006.16 1006.20 1006.26 1006.35 1006.45 1006.58 1006.74 1006.91 1007.11 1007.34 1007.61 1007.93 1008.30 1008.73 1009.22 1009.78 1010.39 1011.04 1011.73 1012.43 1013.12 1013.81 1014.46 1015.08 1015.66 1016.19 1016.67 1017.11 1017.50 1017.85 1018.17 1018.45 1018.71 1018.95
1005.99 1005.92 1005.89 1005.89 1005.90 1005.92 1005.93 1005.94 1005.96 1005.98 1006.01 1006.05 1006.13 1006.23 1006.36 1006.51 1006.69 1006.90 1007.13 1007.38 1007.66 1007.97 1008.33 1008.73 1009.19 1009.70 1010.25 1010.86 1011.50 1012.17 1012.85 1013.52 1014.18 1014.80 1015.38 1015.91 1016.38 1016.81 1017.18 1017.51 1017.81 1018.08 1018.33 1018.58
1005.80 1005.75 1005.74 1005.75 1005.78 1005.80 1005.82 1005.84 1005.85 1005.86 1005.88 1005.92 1005.99 1006.09 1006.22 1006.39 1006.58 1006.80 1007.05 1007.31 1007.59 1007.90 1008.24 1008.61 1009.02 1009.48 1010.00 1010.56 1011.16 1011.79 1012.44 1013.09 1013.73 1014.34 1014.91 1015.42 1015.88 1016.28 1016.63 1016.95 1017.23 1017.49 1017.75 1018.00
1005.85 1005.79 1005.78 1005.79 1005.80 1005.82 1005.82 1005.81 1005.80 1005.78 1005.78 1005.79 1005.84 1005.93 1006.05 1006.22 1006.42 1006.65 1006.90 1007.16 1007.44 1007.73 1008.05 1008.39 1008.77 1009.18 1009.65 1010.16 1010.72 1011.31 1011.93 1012.55 1013.16 1013.74 1014.28 1014.77 1015.20 1015.58 1015.91 1016.20 1016.47 1016.73 1016.99 1017.26
1006.03 1005.96 1005.93 1005.91 1005.90 1005.88 1005.85 1005.80 1005.75 1005.69 1005.66 1005.65 1005.68 1005.75 1005.87 1006.03 1006.23 1006.46 1006.71 1006.98 1007.25 1007.53 1007.83 1008.14 1008.49 1008.87 1009.29 1009.76 1010.27 1010.81 1011.38 1011.96 1012.53 1013.08 1013.58 1014.03 1014.43 1014.78 1015.08 1015.36 1015.61 1015.87 1016.13 1016.41
1006.26 1006.16 1006.09 1006.03 1005.97 1005.91 1005.83 1005.74 1005.65 1005.57 1005.50 1005.47 1005.49 1005.55 1005.67 1005.84 1006.04 1006.28 1006.54 1006.81 1007.09 1007.36 1007.65 1007.94 1008.26 1008.61 1008.99 1009.41 1009.88 1010.38 1010.90 1011.43 1011.95 1012.45 1012.91 1013.32 1013.68 1014.00 1014.28 1014.53 1014.77 1015.01 1015.26 1015.54
1006.48 1006.33 1006.20 1006.08 1005.97 1005.86 1005.74 1005.62 1005.50 1005.39 1005.32 1005.28 1005.30 1005.37 1005.50 1005.69 1005.91 1006.17 1006.44 1006.73 1007.01 1007.29 1007.58 1007.86 1008.16 1008.49 1008.84 1009.22 1009.64 1010.10 1010.57 1011.04 1011.51 1011.96 1012.37 1012.74 1013.06 1013.34 1013.59 1013.82 1014.04 1014.26 1014.50 1014.76
1006.69 1006.47 1006.28 1006.10 1005.94 1005.78 1005.62 1005.47 1005.34 1005.23 1005.15 1005.13 1005.17 1005.27 1005.42 1005.63 1005.89 1006.17 1006.48 1006.78 1007.09 1007.39 1007.68 1007.97 1008.26 1008.57 1008.90 1009.25 1009.63 1010.03 1010.45 1010.88 1011.29 1011.69 1012.05 1012.37 1012.65 1012.90 1013.12 1013.32 1013.51 1013.70 1013.91 1014.14
1006.95 1006.67 1006.41 1006.17 1005.96 1005.76 1005.58 1005.42 1005.28 1005.18 1005.12 1005.12 1005.19 1005.32 1005.51 1005.75 1006.04 1006.35 1006.69 1007.03 1007.36 1007.68 1007.98 1008.28 1008.58 1008.87 1009.18 1009.51 1009.85 1010.21 1010.58 1010.95 1011.31 1011.65 1011.97 1012.25 1012.49 1012.70 1012.88 1013.05 1013.21 1013.37 1013.55 1013.73
1007.35 1007.01 1006.70 1006.43 1006.18 1005.96 1005.76 1005.59 1005.46 1005.38 1005.34 1005.37 1005.46 1005.61 1005.83 1006.10 1006.42 1006.76 1007.12 1007.48 1007.83 1008.17 1008.50 1008.80 1009.10 1009.39 1009.69 1009.98 1010.29 1010.61 1010.93 1011.24 1011.55 1011.84 1012.10 1012.34 1012.54 1012.72 1012.87 1013.01 1013.14 1013.27 1013.40 1013.55
1007.96 1007.59 1007.26 1006.96 1006.70 1006.47 1006.27 1006.11 1005.99 1005.92 1005.90 1005.94 1006.05 1006.22 1006.45 1006.73 1007.05 1007.41 1007.77 1008.15 1008.51 1008.86 1009.19 1009.50 1009.80 1010.08 1010.35 1010.62 1010.89 1011.15 1011.42 1011.68 1011.94 1012.18 1012.39 1012.59 1012.75 1012.90 1013.03 1013.14 1013.24 1013.34 1013.45 1013.56
1008.78 1008.42 1008.10 1007.81 1007.56 1007.35 1007.16 1007.02 1006.91 1006.84 1006.83 1006.87 1006.97 1007.13 1007.35 1007.62 1007.93 1008.27 1008.63 1008.99 1009.35 1009.69 1010.01 1010.31 1010.59 1010.85 1011.09 1011.33 1011.55 1011.77 1011.98 1012.19 1012.39 1012.58 1012.75 1012.90 1013.04 1013.17 1013.27 1013.37 1013.46 1013.54 1013.63 1013.72
1009.76 1009.45 1009.17 1008.93 1008.72 1008.53 1008.37 1008.24 1008.15 1008.08 1008.07 1008.09 1008.17 1008.31 1008.49 1008.72 1008.99 1009.30 1009.61 1009.95 1010.27 1010.59 1010.88 1011.15 1011.40 1011.63 1011.83 1012.02 1012.20 1012.36 1012.52 1012.67 1012.82 1012.96 1013.09 1013.21 1013.33 1013.44 1013.54 1013.63 1013.72 1013.80 1013.88 1013.96
1010.77 1010.54 1010.34 1010.16 1010.01 1009.87 1009.75 1009.64 1009.56 1009.50 1009.47 1009.47 1009.52 1009.61 1009.74 1009.92 1010.13 1010.37 1010.64 1010.91 1011.19 1011.46 1011.71 1011.94 1012.15 1012.33 1012.49 1012.62 1012.74 1012.85 1012.96 1013.05 1013.15 1013.25 1013.36 1013.46 1013.56 1013.67 1013.77 1013.87 1013.97 1014.07 1014.16 1014.24
1011.64 1011.51 1011.41 1011.31 1011.23 1011.15 1011.07 1011.00 1010.93 1010.88 1010.84 1010.82 1010.83 1010.87 1010.95 1011.06 1011.21 1011.39 1011.59 1011.80 1012.02 1012.23 1012.42 1012.60 1012.75 1012.88 1012.99 1013.07 1013.14 1013.20 1013.25 1013.30 1013.36 1013.43 1013.52 1013.61 1013.72 1013.83 1013.95 1014.07 1014.19 1014.31 1014.42 1014.52
1012.22 1012.21 1012.19 1012.18 1012.17 1012.16 1012.13 1012.10 1012.06 1012.01 1011.97 1011.94 1011.92 1011.92 1011.96 1012.02 1012.11 1012.22 1012.36 1012.51 1012.66 1012.81 1012.95 1013.08 1013.18 1013.25 1013.31 1013.34 1013.36 1013.38 1013.39 1013.41 1013.45 1013.51 1013.58 1013.68 1013.79 1013.93 1014.07 1014.22 1014.37 1014.51 1014.63 1014.74
Thickness
5707 5714 5715 5715 5716 5719 5713 5713 5707 5713 5722 5738 5752 5756 5758 5760 5759 5756 5754 5752 5750 5748 5747 5746 5745 5744 5743 5741 5739 5738 5734 5732 5731 5731 5730 5729 5726 5725 5724 5722 5721 5718 5716 5713
5711 5720 5722 5719 5721 5723 5723 5724 5723 5724 5731 5753 5760 5761 5759 5760 5758 5755 5753 5753 5752 5750 5748 5747 5745 5744 5742 5739 5738 5736 5733 5731 5730 5729 5727 5725 5723 5722 5720 5718 5716 5714 5711 5708
5702 5719 5718 5710 5727 5729 5729 5734 5732 5726 5739 5756 5754 5756 5758 5760 5759 5757 5756 5754 5752 5751 5750 5749 5748 5746 5743 5740 5738 5735 5732 5730 5728 5726 5724 5722 5721 5718 5715 5713 5711 5709 5706 5703
5702 5705 5691 5722 5749 5745 5737 5739 5744 5745 5752 5757 5759 5761 5765 5765 5761 5759 5759 5757 5755 5754 5752 5751 5751 5748 5745 5741 5737 5733 5730 5728 5726 5723 5721 5719 5716 5714 5712 5710 5707 5704 5702 5699
5702 5695 5705 5729 5744 5746 5736 5734 5750 5749 5753 5758 5763 5761 5760 5767 5768 5765 5764 5762 5760 5759 5756 5754 5752 5749 5745 5739 5736 5732 5729 5727 5724 5722 5718 5715 5712 5710 5709 5706 5703 5701 5699 5696
5701 5692 5691 5720 5745 5754 5741 5725 5750 5754 5753 5755 5755 5737 5745 5764 5767 5767 5766 5765 5763 5761 5758 5754 5752 5750 5743 5738 5735 5732 5730 5727 5724 5721 5717 5713 5711 5708 5706 5704 5701 5698 5695 5693
5695 5694 5707 5731 5744 5744 5715 5719 5748 5753 5753 5753 5748 5748 5756 5764 5764 5764 5764 5763 5763 5760 5756 5754 5752 5748 5741 5737 5734 5733 5730 5726 5722 5718 5715 5711 5708 5706 5703 5700 5696 5693 5690 5688
5700 5692 5699 5732 5736 5727 5726 5744 5748 5750 5751 5751 5751 5755 5757 5758 5757 5758 5758 5758 5758 5755 5752 5752 5750 5745 5739 5735 5735 5732 5727 5722 5718 5715 5712 5709 5704 5701 5699 5695 5691 5688 5685 5682
5712 5708 5723 5734 5732 5735 5740 5739 5743 5745 5747 5749 5748 5749 5751 5752 5752 5753 5753 5752 5752 5750 5747 5746 5746 5742 5736 5734 5732 5727 5721 5716 5713 5710 5707 5704 5700 5696 5693 5690 5686 5683 5680 5677
5714 5718 5725 5729 5732 5735 5737 5736 5740 5743 5744 5744 5743 5744 5745 5746 5746 5746 5747 5746 5746 5743 5739 5738 5738 5737 5734 5732 5728 5722 5716 5711 5708 5705 5701 5699 5695 5692 5688 5685 5681 5678 5675 5672
5708 5715 5719 5722 5726 5729 5732 5734 5735 5737 5739 5739 5739 5739 5741 5741 5740 5741 5741 5740 5739 5736 5733 5732 5732 5730 5729 5727 5723 5716 5711 5707 5703 5701 5697 5693 5690 5687 5684 5682 5679 5675 5672 5669
5699 5711 5711 5712 5720 5723 5723 5724 5727 5728 5730 5733 5734 5734 5735 5735 5735 5735 5734 5733 5731 5729 5727 5727 5726 5724 5723 5722 5718 5712 5706 5702 5699 5695 5692 5688 5684 5680 5679 5677 5674 5671 5668 5664
5707 5711 5711 5712 5715 5717 5717 5719 5721 5723 5724 5725 5728 5729 5730 5729 5729 5729 5728 5727 5725 5723 5722 5721 5720 5718 5717 5716 5712 5707 5702 5698 5694 5691 5687 5683 5680 5675 5670 5667 5665 5663 5660 5656
5703 5703 5699 5701 5703 5707 5709 5712 5714 5716 5718 5720 5721 5722 5723 5722 5722 5721 5720 5721 5720 5719 5717 5716 5713 5711 5712 5709 5705 5701 5697 5694 5690 5686 5682 5679 5675 5671 5667 5661 5656 5653 5651 5648
5691 5693 5692 5694 5696 5697 5699 5701 5701 5703 5706 5708 5711 5712 5713 5712 5712 5713 5715 5715 5713 5711 5710 5709 5706 5704 5705 5702 5698 5694 5690 5687 5684 5680 5676 5673 5669 5665 5661 5658 5653 5648 5644 5640
5679 5681 5681 5681 5682 5685 5687 5688 5688 5691 5694 5696 5698 5700 5703 5704 5704 5705 5706 5706 5702 5700 5700 5700 5698 5697 5697 5694 5689 5685 5682 5680 5676 5672 5668 5665 5661 5657 5654 5650 5646 5642 5638 5634
5663 5664 5666 5667 5670 5673 5675 5677 5679 5681 5683 5685 5687 5690 5692 5692 5692 5693 5694 5695 5694 5693 5692 5691 5690 5690 5688 5684 5680 5676 5673 5670 5667 5664 5660 5657 5653 5649 5646 5642 5638 5635 5631 5628
5657 5657 5659 5659 5660 5661 5664 5667 5669 5671 5672 5674 5677 5679 5679 5680 5680 5681 5683 5684 5683 5682 5682 5682 5682 5680 5678 5675 5671 5667 5664 5661 5657 5654 5651 5647 5644 5641 5637 5633 5630 5626 5622 5619
5644 5645 5647 5649 5651 5652 5653 5655 5657 5660 5662 5663 5664 5665 5668 5669 5670 5671 5672 5671 5669 5668 5669 5671 5670 5669 5666 5663 5660 5657 5654 5650 5647 5644 5640 5637 5633 5630 5627 5623 5619 5616 5612 5608
5631 5633 5634 5636 5639 5640 5641 5644 5647 5648 5650 5651 5652 5652 5653 5656 5658 5659 5659 5657 5657 5658 5659 5658 5657 5655 5653 5650 5647 5645 5642 5638 5635 5632 5629 5626 5622 5619 5616 5612 5609 5605 5602 5598
5617 5619 5621 5623 5625 5628 5630 5632 5634 5635 5637 5638 5638 5638 5640 5642 5644 5645 5643 5641 5643 5644 5645 5644 5642 5640 5638 5635 5633 5631 5629 5626 5623 5620 5616 5613 5610 5607 5604 5601 5597 5594 5590 5586
5604 5606 5608 5611 5613 5614 5617 5619 5620 5622 5623 5623 5624 5624 5625 5626 5627 5628 5628 5627 5628 5628 5628 5627 5626 5624 5622 5620 5618 5616 5614 5612 5609 5606 5603 5600 5597 5593 5590 5587 5584 5581 5577 5573
5591 5594 5596 5598 5600 5602 5604 5606 5607 5608 5608 5608 5609 5609 5609 5610 5611 5610 5609 5611 5612 5611 5611 5610 5609 5608 5606 5604 5602 5601 5599 5597 5595 5592 5589 5586 5583 5580 5576 5573 5570 5566 5562 5557
5578 5580 5582 5585 5588 5589 5589 5591 5592 5593 5593 5594 5594 5595 5595 5594 5594 5595 5595 5595 5595 5594 5593 5592 5592 5590 5589 5588 5586 5585 5583 5581 5579 5577 5575 5572 5569 5566 5562 5559 5555 5551 5547 5543
5562 5565 5568 5569 5571 5572 5574 5576 5576 5576 5577 5577 5578 5578 5579 5578 5578 5578 5578 5577 5576 5576 5575 5574 5574 5573 5572 5571 5570 5568 5567 5565 5563 5561 5558 5555 5552 5549 5546 5543 5539 5535 5531 5527
5548 5550 5551 5553 5555 5555 5557 5559 5559 5559 5560 5560 5561 5561 5561 5561 5561 5560 5560 5560 5559 5557 5557 5556 5555 5555 5554 5553 5552 5550 5549 5547 5545 5543 5541 5538 5536 5533 5529 5526 5523 5519 5516 5512
5534 5535 5536 5537 5538 5540 5541 5542 5542 5542 5543 5543 5544 5544 5544 5544 5543 5542 5542 5542 5541 5540 5539 5538 5537 5536 5536 5535 5533 5532 5531 5529 5527 5525 5522 5520 5518 5515 5512 5509 5506 5502 5499 5495